Regional Weather Roundup
Issued by NWS

Home | Current Version | Previous Version | Text Only | Print | Product List | Glossary On
Versions: 1 2 3 4 5 6 7 8 9 10 11 12 13 14 15 16 17 18 19 20 21 22 23 24 25 26 27 28 29 30 31 32 33 34 35 36 37 38 39 40 41 42 43 44 45 46 47 48 49 50
194
ASUS44 KOUN 260610
RWROK

WEATHER ROUNDUP FOR OKLAHOMA
NATIONAL WEATHER SERVICE NORMAN OK
100 AM CDT SUN MAR 26 2017

NOTE: "FAIR" INDICATES FEW OR NO CLOUDS BELOW 12,000 FEET WITH NO
      SIGNIFICANT WEATHER AND/OR OBSTRUCTIONS TO VISIBILITY.

OKZ001>007-009>012-014-015-017-260700-
NORTHWEST OKLAHOMA AND THE PANHANDLE

CITY           SKY/WX    TMP DP  RH WIND       PRES   REMARKS
GAGE           PTCLDY    47  42  83 SE5       29.88S
6HR MIN TEMP:  47; 6HR MAX TEMP:  68;

GUYMON         CLEAR     45  29  53 E5        29.84S
ENID/WOODRING  CLOUDY    41  41 100 NE5       29.90S
$$

OKZ016-021>023-033>039-044-045-260700-
SOUTHWEST OKLAHOMA

CITY           SKY/WX    TMP DP  RH WIND       PRES   REMARKS
LAWTON/REGL    PTCLDY    50  43  77 NE5       29.89S
6HR MIN TEMP:  49; 6HR MAX TEMP:  70;

LAWTON/FT SILL PTCLDY    51  44  79 CALM      29.88S
FREDERICK      CLOUDY    51  42  71 E7        29.84F
CLINTON        PTCLDY    49  43  80 E13       29.89F
HOBART         PTCLDY    47  43  86 E8        29.88F
ALTUS AFB      PTCLDY    45  39  78 E3        29.85F
$$

OKZ018>020-024>031-260700-
CENTRAL OKLAHOMA

CITY           SKY/WX    TMP DP  RH WIND       PRES   REMARKS
OKLAHOMA CITY  CLOUDY    48  43  82 E8        29.90S
6HR MIN TEMP:  46; 6HR MAX TEMP:  60;

OKC/WILEY POST PTCLDY    48  44  86 E5        29.91S
OKC/TINKER AFB CLOUDY    45  41  86 E7        29.90S
STILLWATER     CLOUDY    41  38  89 NE5       29.91F
GUTHRIE        CLEAR     45  41  86 E3        29.91F
$$

OKZ008-013-054>072-260700-
NORTHEAST OKLAHOMA

CITY           SKY/WX    TMP DP  RH WIND       PRES   REMARKS
TULSA          PTCLDY    47  43  86 CALM      29.92S
6HR MIN TEMP:  46; 6HR MAX TEMP:  52;

TULSA/JONES    CLEAR     43  41  93 CALM      29.93S
PONCA CITY     CLOUDY    47  41  80 CALM      29.92S
BARTLESVILLE   PTCLDY    44  40  85 CALM      29.93F
MUSKOGEE       CLEAR     48  44  86 CALM      29.93F
$$

OKZ032-040>043-046>053-073>077-260700-
SOUTH CENTRAL/SOUTHEAST OKLAHOMA

CITY           SKY/WX    TMP DP  RH WIND       PRES   REMARKS
ARDMORE/DWNTWN CLEAR     48  43  81 CALM      29.90F
MCALESTER      CLOUDY    46  42  86 CALM      29.92S
$$





USA.gov is the U.S. government's official web portal to all federal, state and local government web resources and services.